GFSSGP_500_spd_204.txt.gz
Wind_Speed
3 2 4 4 16 18 11 16 18 24 15 14 13 14 17 18 12 9 10 11 10 10 10 12 11 8 8 7 8 8 7 8 7 5 3 4 3 3 4 5 5 7 9 10 11 10 8 4 5
4 6 4 12 16 13 10 10 10 19 17 10 11 16 19 15 12 11 10 9 9 8 10 12 9 8 7 7 8 7 8 9 9 5 3 3 5 7 4 2 4 8 12 11 12 11 7 6 4
6 6 3 15 19 14 9 10 11 19 11 11 12 14 14 13 11 10 8 9 8 8 11 10 8 8 7 8 8 8 9 10 9 7 10 7 5 7 6 2 4 8 11 12 15 11 3 2 4
11 5 11 16 17 16 14 11 12 9 6 10 10 11 7 10 8 6 10 7 6 9 11 8 8 7 8 7 8 10 11 11 11 12 12 14 7 1 1 5 6 6 8 12 16 14 11 9 7
13 2 12 15 23 20 14 13 13 8 3 7 12 10 9 9 6 5 8 6 6 9 9 7 7 7 6 8 10 12 12 15 16 15 18 22 23 12 7 8 11 10 10 14 16 16 19 18 10
15 6 19 16 17 15 17 13 11 7 5 5 5 7 9 10 7 7 8 7 6 8 7 7 7 7 7 9 12 10 12 16 22 20 18 23 19 21 20 17 13 10 11 13 11 15 20 20 19
11 4 17 19 13 17 18 16 13 6 7 6 4 6 7 7 6 10 7 8 8 7 6 7 7 6 9 13 13 10 14 18 17 16 16 17 19 18 17 14 13 12 10 14 14 16 18 23 29
5 17 10 11 11 20 17 16 12 10 8 7 7 7 8 10 9 12 11 10 9 8 5 8 9 11 14 14 11 12 15 16 16 19 25 21 14 15 14 10 11 9 10 14 15 16 25 25 24
2 10 7 12 18 10 17 14 13 10 7 7 8 9 11 11 11 8 10 10 9 8 8 8 12 13 14 13 11 13 15 16 18 19 19 20 18 15 13 15 14 13 14 15 16 23 25 32 28
2 9 18 13 11 13 12 9 10 9 9 6 6 10 10 13 13 9 9 9 9 7 8 9 12 13 12 12 11 11 16 18 15 19 21 21 19 20 18 19 16 14 16 18 19 19 20 24 23
9 17 11 11 6 13 12 12 11 7 7 5 2 8 12 11 11 10 10 8 7 6 7 9 10 11 10 13 8 13 15 16 21 20 20 24 21 21 21 19 16 19 19 20 19 18 23 24 20
8 4 4 9 11 16 16 15 12 15 9 8 7 4 7 9 8 10 9 8 6 4 7 8 10 10 11 12 6 9 11 17 22 20 20 25 21 21 20 20 19 20 19 17 18 17 22 23 20
7 7 4 2 13 12 16 18 11 6 10 8 5 5 5 7 7 11 10 8 5 5 6 8 11 11 14 11 10 13 12 19 17 21 20 23 19 22 20 20 20 21 17 16 16 17 17 18 19
14 12 7 11 12 12 12 13 13 11 10 8 5 2 4 6 7 9 13 9 4 5 7 9 12 14 15 12 11 13 15 19 17 20 20 17 19 21 19 16 16 18 17 16 16 16 17 18 17
18 12 11 9 6 7 11 11 11 8 8 6 6 2 2 4 6 9 14 11 8 8 10 13 15 16 15 14 11 13 17 17 18 19 17 20 20 21 20 16 17 19 18 16 17 18 18 17 17
18 18 17 10 7 7 13 11 12 9 8 6 6 4 4 2 4 10 14 14 11 10 13 15 16 15 14 10 11 15 16 17 16 18 16 16 18 20 22 22 21 21 20 19 20 19 18 16 17
22 23 17 16 14 6 8 4 12 10 10 8 6 5 3 3 3 9 16 15 14 15 17 17 16 15 14 12 12 15 14 16 14 17 15 19 19 17 19 19 19 18 19 18 19 20 20 17 18
23 22 22 23 17 9 9 12 3 9 11 10 5 5 4 1 2 12 17 17 16 19 19 18 15 15 13 12 11 13 13 13 14 14 15 17 16 16 16 16 15 16 16 18 17 18 18 18 16
31 32 27 18 17 17 12 13 11 6 11 7 7 6 4 6 3 13 19 20 17 19 20 18 16 14 13 12 11 12 12 12 13 13 15 16 16 16 17 16 14 14 15 16 16 17 16 15 15
31 31 25 13 18 15 14 11 11 4 4 3 4 4 5 5 4 13 19 21 19 21 22 20 16 14 12 10 11 11 11 12 11 11 14 16 17 16 15 15 14 14 15 15 15 15 15 16 17
29 31 15 8 10 19 19 7 4 3 4 5 5 3 1 5 4 16 21 23 22 21 22 22 17 15 12 10 10 10 10 11 9 9 12 14 15 15 14 14 13 13 13 14 15 15 13 14 15
37 30 17 10 11 25 17 13 12 2 8 8 10 6 4 3 5 15 23 25 23 23 23 22 19 16 13 10 10 9 9 10 7 9 12 13 14 13 14 13 12 12 13 13 15 16 16 15 16
41 31 22 12 16 8 6 11 5 5 3 14 13 12 7 7 11 15 18 26 26 26 25 24 20 17 13 11 9 9 7 8 6 9 10 12 12 13 13 13 15 16 16 17 17 17 17 17 17
34 31 32 23 18 16 8 13 8 4 3 16 15 9 8 12 10 18 21 26 28 31 29 26 22 18 15 12 10 8 7 6 5 9 9 9 9 10 12 15 14 14 16 18 19 18 18 19 18
37 37 35 30 28 17 7 15 10 7 7 13 11 10 10 7 9 13 20 24 29 30 30 27 22 19 15 13 11 9 6 6 5 6 9 7 6 9 10 12 12 12 15 17 19 21 19 19 21
44 40 43 37 30 18 11 19 15 16 14 16 15 12 16 12 11 12 20 25 31 31 31 28 24 20 16 15 12 10 7 6 3 5 6 4 4 5 8 10 10 11 14 17 20 21 24 24 25
39 44 40 36 29 25 23 22 22 18 17 16 17 24 30 23 15 14 19 25 26 31 32 29 25 21 18 15 13 11 9 7 4 5 4 3 3 4 8 9 10 12 14 16 19 21 23 26 27
44 40 42 42 38 35 28 25 22 13 14 16 16 13 20 25 20 20 19 23 26 29 33 30 27 23 19 16 14 12 10 8 6 4 5 2 2 4 8 6 6 9 14 16 18 20 22 24 26
41 44 48 42 40 38 33 30 23 12 15 10 8 9 17 22 19 19 20 22 25 29 33 30 27 23 18 15 14 13 11 10 7 5 4 3 4 6 4 4 6 9 12 16 20 21 21 22 24
45 45 50 49 44 43 39 34 26 22 12 17 14 24 19 23 19 20 23 24 27 28 33 29 27 22 20 17 15 13 12 10 8 5 5 4 3 4 3 4 7 10 14 17 20 21 22 26 29

GFSSGP_500_spd_207.txt.gz
Wind_Speed
5 3 4 1 6 16 10 15 17 18 20 15 12 17 17 14 11 7 7 8 6 7 8 8 8 8 9 10 11 11 13 13 12 10 8 8 7 6 5 5 6 8 10 10 10 8 4 2 4
11 11 6 5 8 19 14 23 22 21 22 17 12 16 16 14 10 8 8 6 6 6 7 8 7 8 9 11 12 12 12 13 14 13 14 11 9 9 1 5 7 11 13 14 13 9 3 2 1
10 10 10 18 11 15 10 15 18 17 15 13 11 14 14 14 8 6 5 6 7 5 7 8 8 9 10 10 11 12 14 14 14 12 13 11 7 8 2 6 8 11 15 15 16 18 13 6 2
9 8 23 19 19 17 18 16 12 15 14 15 13 7 13 8 7 6 6 5 7 5 6 8 7 9 10 9 11 12 15 15 14 17 20 18 9 4 3 7 6 11 14 19 22 22 20 19 15
7 5 6 19 18 18 21 17 15 13 16 16 14 12 10 5 5 6 5 6 5 4 6 8 7 9 8 9 10 17 17 16 14 17 16 20 17 12 10 11 13 13 15 19 20 24 25 23 17
12 10 14 19 19 20 18 19 15 14 15 14 14 9 9 6 7 8 7 6 4 3 5 6 7 9 8 10 14 15 14 16 17 14 18 18 16 14 12 12 11 14 14 18 18 26 31 27 32
15 3 15 17 19 17 15 16 16 15 13 13 13 11 7 7 9 10 8 7 4 4 5 6 7 10 11 12 14 12 17 18 18 16 13 14 12 11 11 9 11 13 16 16 19 25 30 33 37
5 11 2 13 15 19 18 15 17 16 14 11 10 9 9 10 12 11 11 6 4 6 7 6 9 12 12 14 13 14 17 16 12 14 15 14 11 13 11 12 13 16 18 20 23 32 35 32 33
3 7 14 14 25 18 17 11 15 16 13 12 10 10 13 12 12 12 11 7 6 7 8 6 9 12 14 15 14 14 15 17 18 16 14 13 14 16 16 16 17 16 21 21 35 25 24 27 29
9 10 13 25 19 19 14 14 15 15 15 12 10 10 11 9 10 10 9 6 9 8 7 5 8 13 11 15 16 17 18 16 14 16 15 15 17 20 20 20 21 23 24 26 22 23 22 25 26
8 11 10 18 16 13 14 9 10 13 10 10 10 9 11 11 12 10 8 6 9 8 6 4 8 11 9 14 16 16 15 15 16 18 19 18 20 20 20 19 21 23 23 21 22 22 22 22 22
6 11 12 15 18 16 13 11 17 14 11 9 9 12 13 12 11 10 9 6 7 7 6 4 10 9 9 11 14 12 17 17 17 20 19 18 20 20 20 20 20 20 20 21 19 19 20 20 20
9 6 9 13 18 20 17 15 12 9 10 9 6 7 11 12 13 12 11 8 6 7 6 8 9 10 10 13 12 14 20 17 18 19 19 19 21 18 19 18 17 18 18 19 19 19 19 19 19
8 10 14 11 22 18 17 16 15 13 13 11 6 7 8 12 14 16 15 10 5 7 9 10 10 11 10 15 10 16 20 19 18 17 17 20 19 17 17 15 16 18 19 19 20 20 19 18 18
13 13 13 16 13 17 14 15 15 12 12 10 7 5 7 10 13 14 14 12 8 8 12 13 11 12 13 14 9 17 19 19 18 17 17 19 21 19 17 18 20 20 19 20 21 21 21 21 20
15 14 17 15 9 17 16 15 14 13 12 10 7 5 6 6 11 17 16 12 11 9 12 13 12 13 12 12 11 16 18 18 18 15 16 19 22 24 22 19 18 18 18 19 20 20 19 19 20
22 18 13 12 14 13 17 12 11 9 10 11 7 5 6 6 9 15 17 16 14 14 15 14 12 11 13 12 13 15 17 18 17 15 15 16 19 18 17 17 17 17 17 19 19 22 21 19 17
22 25 25 21 15 11 10 8 9 10 10 11 9 5 4 6 8 15 19 17 17 16 15 14 13 12 12 12 13 14 16 17 15 15 13 14 16 15 16 16 16 16 17 19 18 17 16 16 14
24 25 26 24 24 19 13 16 13 8 8 8 6 7 5 4 8 15 19 20 18 19 18 17 15 12 12 11 12 13 16 15 15 14 12 14 15 14 15 15 15 16 17 19 18 16 16 15 13
29 30 30 22 24 17 20 12 11 8 4 2 2 3 5 6 6 16 21 23 21 23 22 19 16 13 13 11 12 12 15 15 14 13 11 13 15 15 14 15 15 16 16 18 17 17 16 15 14
34 33 28 23 25 23 20 13 13 15 8 6 2 4 4 4 9 15 24 26 24 25 25 21 17 14 12 12 11 11 13 13 14 11 11 14 16 17 15 14 15 15 16 16 16 17 17 17 17
40 34 29 26 22 27 23 22 17 17 12 10 7 5 5 5 7 17 27 29 26 29 27 22 18 16 12 11 10 10 11 12 12 10 10 12 14 15 15 15 16 15 15 16 16 18 18 19 18
42 34 30 23 23 27 31 29 21 15 13 6 2 8 6 2 7 17 25 29 29 29 27 24 20 17 14 12 10 9 9 11 11 9 10 12 13 13 15 15 15 14 15 15 16 17 18 18 20
40 40 35 31 27 32 32 33 22 16 7 7 1 7 7 3 4 16 27 31 28 29 29 26 22 19 15 13 10 9 9 9 12 9 9 11 13 12 13 13 13 14 15 16 17 20 22 22 22
45 46 41 40 35 20 25 28 24 23 15 8 3 3 5 7 7 13 20 27 29 27 28 26 23 20 17 14 12 9 8 8 9 9 7 11 10 9 10 9 10 11 12 15 18 20 22 25 26
46 48 53 46 34 29 24 35 23 22 17 11 9 8 8 11 8 13 22 26 29 28 28 28 25 22 19 16 14 10 9 8 7 7 6 9 7 7 7 5 7 10 12 15 18 20 22 24 26
45 50 47 47 41 44 33 26 25 21 17 14 11 13 14 18 14 16 23 26 30 34 32 29 27 24 21 19 15 12 10 9 7 6 6 7 7 7 6 2 6 8 13 15 18 20 21 21 22
49 45 47 52 48 46 36 33 27 21 16 14 12 17 26 20 16 17 22 24 30 34 34 33 30 26 23 20 17 14 12 9 8 6 5 5 7 7 5 1 4 8 11 14 17 19 20 20 21
49 51 51 52 51 47 40 42 30 21 15 13 4 6 5 16 22 20 22 23 28 35 36 34 32 28 23 21 19 16 12 10 8 6 5 4 5 5 3 1 4 5 9 13 16 18 20 23 24
48 50 50 53 52 49 45 45 30 27 18 14 8 8 3 5 15 19 22 27 29 31 34 35 32 28 24 22 20 17 16 13 10 9 7 6 7 7 3 2 5 4 7 10 15 19 23 26 28

GFSSGP_500_spd_210.txt.gz
Wind_Speed
5 3 6 4 1 21 19 20 19 21 19 16 13 13 13 12 10 8 8 9 6 5 7 8 11 12 13 14 13 12 12 11 10 9 9 7 7 5 5 9 11 15 16 14 8 4 4 3 2
11 10 5 2 18 16 22 22 25 23 19 19 16 15 14 10 9 8 8 7 4 5 7 12 11 12 13 13 12 13 13 12 11 10 9 6 8 9 4 9 11 16 17 13 9 8 6 5 5
12 11 11 21 18 23 22 18 23 23 20 20 17 15 12 10 9 8 7 5 4 5 9 11 10 11 12 11 12 14 15 13 13 13 12 8 7 9 6 7 14 18 18 18 14 14 10 4 3
9 11 16 17 19 20 28 25 21 15 16 18 16 14 11 9 8 8 5 5 4 6 9 8 9 10 10 11 15 15 14 13 15 18 18 15 11 9 14 19 18 18 18 20 22 19 12 9 8
10 9 21 17 19 22 28 18 21 19 18 16 15 12 10 8 8 7 5 5 5 6 7 6 7 7 9 11 13 17 16 14 13 17 18 19 17 16 15 18 19 17 20 24 22 24 22 15 9
9 8 12 24 17 20 21 17 20 22 19 16 13 9 10 8 9 8 6 5 5 6 5 6 5 7 9 10 15 16 13 13 14 15 15 18 17 16 19 18 17 16 18 28 33 29 27 24 20
12 12 18 21 20 20 19 17 19 20 17 16 10 8 8 10 10 9 6 6 6 5 5 5 4 8 10 12 13 16 14 14 16 11 14 15 16 16 17 17 17 13 15 33 31 28 30 32 31
10 9 7 14 18 18 17 14 12 18 16 14 12 8 7 5 11 10 7 7 5 4 5 6 6 11 11 14 13 14 13 15 13 13 16 16 18 19 21 21 17 9 35 33 24 29 29 31 36
8 11 5 11 18 21 19 15 15 15 13 11 11 6 10 8 11 11 8 8 6 5 6 7 9 11 13 13 15 12 13 14 15 17 18 19 21 23 22 23 21 32 32 26 26 26 27 28 26
10 14 8 16 19 21 18 14 14 12 12 13 12 12 14 12 10 9 6 8 7 6 5 8 10 11 12 13 14 12 15 15 15 19 19 20 23 27 27 27 26 22 24 23 23 23 25 24 24
8 14 10 17 20 15 13 13 10 11 11 11 12 10 13 14 12 10 7 8 7 6 4 6 10 11 10 12 12 13 17 15 18 19 18 22 26 27 26 24 25 22 20 19 20 21 24 25 24
7 14 17 18 15 17 15 13 12 11 10 13 12 11 12 14 13 11 8 7 7 6 4 5 9 10 7 10 13 13 19 19 20 20 21 22 23 24 23 22 22 19 18 17 18 20 22 25 25
4 12 17 15 17 15 17 22 16 12 13 14 15 13 15 15 12 11 9 8 7 5 5 7 9 10 8 11 13 14 18 17 20 19 19 18 19 20 21 20 21 20 20 18 18 18 19 20 22
7 12 20 16 15 16 15 17 17 15 13 12 11 13 14 15 15 16 14 11 8 5 6 9 11 10 8 12 14 15 18 18 19 19 18 16 17 19 18 21 22 22 22 20 20 20 18 18 18
7 11 17 26 17 18 16 15 18 18 15 13 11 10 11 13 17 16 15 12 9 8 7 11 13 13 10 13 15 16 18 18 17 17 17 18 19 17 19 22 23 22 22 21 20 18 17 18 19
10 12 14 19 22 17 15 16 17 17 16 14 10 10 13 14 16 18 18 14 13 11 9 12 16 14 12 16 16 16 17 18 16 16 18 20 21 20 20 20 19 19 20 22 20 19 18 18 17
15 15 15 18 14 18 15 12 8 12 12 13 12 9 9 13 15 18 19 19 15 15 14 13 15 13 13 17 19 17 16 17 16 14 16 17 19 21 19 17 17 17 16 17 18 16 16 15 15
24 17 19 17 16 21 17 13 12 11 11 10 11 12 9 8 14 17 18 20 18 16 15 13 13 13 14 16 19 18 18 16 16 13 13 13 15 17 17 18 19 18 17 17 15 14 13 11 12
28 24 20 20 20 23 21 15 11 7 5 6 8 5 8 9 10 13 17 20 20 19 17 13 12 12 14 17 19 19 19 17 15 13 12 11 12 13 15 16 17 18 18 17 16 14 14 13 13
31 28 20 23 23 23 20 14 13 7 6 6 5 5 5 8 10 14 18 24 21 23 19 15 13 12 13 15 18 19 21 18 15 14 12 10 9 11 15 17 19 19 18 17 16 15 14 14 12
34 31 23 21 26 26 23 13 15 17 11 8 5 3 2 4 10 14 20 27 24 22 21 19 16 14 14 15 17 17 21 18 16 14 12 12 12 13 17 18 17 16 15 15 16 16 17 17 17
39 34 30 26 30 25 26 19 20 24 17 14 10 4 1 3 6 13 22 29 26 26 24 20 17 15 14 13 16 16 19 18 16 14 13 13 13 14 16 16 16 16 17 18 21 22 22 20 21
36 37 34 32 34 33 25 23 22 25 21 13 7 2 1 3 4 12 24 30 30 29 27 23 19 17 14 13 16 15 18 18 15 15 13 13 13 13 14 14 14 15 17 19 22 25 26 27 28
38 40 39 38 37 37 22 26 25 23 21 18 13 11 10 7 6 12 24 34 32 31 30 25 22 19 15 13 14 15 15 15 16 16 15 14 12 12 13 12 12 13 16 19 22 24 25 26 27
45 43 44 44 43 36 21 30 23 26 21 19 14 14 15 13 10 11 22 29 30 30 29 26 24 20 17 14 12 15 15 13 13 15 14 13 9 11 10 10 10 12 14 16 19 22 23 22 23
45 45 49 49 48 38 29 35 25 29 24 20 15 11 11 11 9 11 22 28 32 30 31 29 26 23 19 16 14 13 14 13 13 13 12 10 8 8 8 7 8 11 13 15 16 18 20 20 21
50 49 44 48 49 42 39 25 37 26 27 24 13 10 12 12 13 11 15 27 35 32 32 32 28 25 22 19 16 13 13 12 13 12 11 9 7 6 5 4 5 7 10 13 15 15 15 17 20
53 49 49 52 50 47 41 32 33 31 32 25 13 9 13 16 19 16 15 21 33 36 35 35 33 29 25 22 18 15 15 13 12 11 11 10 8 6 4 1 3 4 7 11 12 14 16 18 19
50 55 55 53 51 48 41 38 34 24 21 20 15 10 4 4 14 18 15 18 30 36 37 36 34 31 27 23 22 19 16 15 13 11 10 9 8 7 5 2 2 3 4 7 10 12 17 19 19
50 50 53 56 53 51 47 47 32 27 25 24 17 11 5 5 6 22 20 22 24 34 37 36 34 30 27 25 23 21 19 16 15 12 11 10 8 9 7 4 2 2 1 4 8 13 18 20 22

GFSSGP_500_spd_216.txt.gz
Wind_Speed
5 6 14 16 17 23 21 24 21 18 16 16 13 12 15 16 13 12 12 12 10 10 9 10 12 13 12 12 12 11 12 10 7 5 5 6 12 9 7 5 8 6 3 2 2 4 6 5 5
3 4 9 10 21 23 21 22 21 20 17 13 11 12 15 15 14 10 11 10 9 9 9 10 12 11 11 13 13 14 13 13 12 7 8 12 11 8 6 9 11 15 6 6 5 5 8 9 9
7 13 17 26 19 22 21 20 20 19 15 11 14 13 14 14 12 10 11 9 8 9 9 9 11 10 12 14 12 13 13 16 15 11 14 13 10 13 11 11 12 14 15 11 6 5 6 8 9
22 22 20 22 21 24 23 21 21 17 15 13 14 13 12 13 11 11 10 8 8 10 10 10 10 10 11 13 12 10 15 15 16 19 21 18 16 16 14 15 18 19 23 19 9 1 2 3 7
18 17 18 19 21 25 23 18 19 18 15 14 12 11 11 10 10 10 8 7 7 9 11 10 10 11 12 13 13 12 11 14 16 20 19 17 16 15 16 18 23 24 25 24 16 12 9 4 6
13 14 20 19 23 23 23 17 16 17 12 9 10 8 10 10 10 9 8 7 7 9 11 10 10 9 11 13 12 13 12 12 14 15 15 15 14 16 17 22 23 26 28 30 23 21 13 11 14
10 14 19 21 23 25 22 15 16 16 11 9 8 7 9 10 9 9 7 6 6 10 11 11 10 11 12 13 13 15 14 15 15 16 15 14 15 16 20 24 22 25 29 36 34 25 22 18 19
9 9 18 25 24 20 20 19 18 14 13 11 9 9 11 12 8 9 7 6 6 10 11 10 11 12 14 12 13 16 16 20 19 18 18 20 11 20 33 27 24 24 28 31 35 38 33 34 33
9 6 20 27 25 18 16 18 17 13 11 12 11 6 13 13 8 7 6 6 6 9 10 10 12 12 13 12 14 17 19 22 23 23 29 36 46 38 26 23 24 23 24 25 28 32 35 37 36
7 3 17 25 25 23 20 20 18 16 8 13 11 9 12 14 9 7 7 5 6 8 9 9 11 11 12 13 15 18 20 23 24 27 32 26 32 28 26 24 23 23 25 24 26 27 28 29 28
5 5 14 16 24 25 20 17 17 17 15 12 10 10 13 15 10 8 6 5 6 6 8 9 9 10 13 15 16 19 20 23 24 25 26 23 25 25 23 23 24 25 25 26 25 25 24 24 24
2 4 5 19 30 24 19 17 15 15 12 11 11 14 14 13 9 7 7 5 6 5 7 9 8 9 13 16 19 20 21 23 21 20 20 20 22 23 23 24 24 25 25 24 24 24 23 23 21
6 1 5 11 33 21 16 13 12 12 10 10 10 13 13 13 11 10 9 6 6 7 7 9 9 10 13 16 19 21 20 21 19 17 18 18 19 22 24 23 23 24 24 22 21 21 21 20 18
8 10 8 2 9 11 12 10 10 11 12 13 13 13 14 14 13 12 9 8 6 7 9 11 10 11 15 17 19 20 20 18 18 17 16 17 18 19 20 21 22 22 22 21 20 18 18 16 15
9 8 12 11 9 13 12 10 11 11 13 14 13 15 15 15 13 10 10 8 6 8 9 12 11 12 15 18 20 21 19 18 19 18 17 19 18 18 19 18 18 18 19 20 18 16 14 13 12
15 12 5 15 16 15 13 13 12 12 12 14 18 15 15 16 13 13 13 11 8 9 10 13 13 13 16 19 21 21 20 19 19 19 19 19 18 17 17 18 16 15 15 15 15 13 12 11 10
18 12 14 17 16 16 17 17 14 12 12 14 16 18 17 18 17 16 16 14 10 10 11 12 14 14 16 19 21 22 22 22 20 20 19 17 15 14 15 13 12 12 12 12 10 10 10 9 7
15 14 15 12 17 14 13 13 14 15 13 12 14 15 15 14 16 18 18 17 13 12 11 13 14 15 15 19 21 22 24 24 21 18 17 15 13 12 12 11 10 10 10 10 8 9 8 7 5
31 23 19 25 22 18 17 16 16 13 12 12 11 11 10 10 11 12 16 19 15 14 12 13 14 15 15 19 21 22 23 23 21 18 15 14 13 11 12 14 14 13 12 10 8 7 7 4 3
29 28 22 25 25 21 19 19 11 9 11 9 9 7 5 7 11 15 16 19 18 16 15 13 14 14 15 17 21 22 23 22 20 17 15 15 13 13 13 14 13 14 13 11 10 11 10 7 4
32 28 20 23 26 25 22 19 17 14 10 9 9 7 8 7 8 11 17 22 21 18 17 16 14 15 16 16 21 22 22 22 21 18 16 15 16 17 15 15 16 16 16 15 14 13 15 14 10
32 32 29 28 26 15 28 16 20 17 16 10 8 11 9 8 8 9 14 20 24 23 20 18 17 16 18 18 19 22 23 23 22 20 18 18 18 17 18 17 16 15 16 16 15 14 14 15 14
38 30 33 33 29 26 26 25 17 18 18 12 11 10 9 9 9 9 14 20 27 27 24 22 20 18 18 19 18 20 22 22 22 22 20 19 18 18 17 16 15 15 15 16 15 16 16 15 14
40 45 38 35 32 30 25 23 22 17 16 15 15 13 12 12 12 12 13 17 24 27 26 24 22 20 18 19 17 19 21 22 20 21 21 20 19 17 16 15 14 14 15 15 15 15 15 16 15
46 46 36 35 34 33 25 27 28 27 18 22 22 16 16 17 15 14 12 11 23 27 28 26 24 21 19 18 18 18 19 21 22 21 20 20 19 17 14 13 12 12 14 14 14 15 16 17 17
49 47 36 34 28 27 27 36 29 24 26 28 26 24 18 19 12 11 15 11 17 28 31 28 25 23 20 19 19 18 18 19 20 19 18 17 16 15 14 12 11 11 11 11 12 11 12 14 17
50 55 42 35 30 29 28 33 33 23 28 31 33 24 26 23 18 17 15 11 13 23 31 29 28 25 23 22 19 19 18 18 18 18 17 16 14 13 11 9 8 8 9 10 10 9 9 12 16
54 49 50 47 41 39 32 31 30 30 26 33 25 23 24 21 18 19 14 13 12 18 29 30 31 27 25 24 21 19 20 20 20 18 17 16 14 12 9 8 7 6 5 6 6 7 7 9 12
55 56 56 41 44 36 35 33 28 29 30 37 33 23 25 21 20 21 19 18 14 18 22 29 31 30 27 24 22 20 20 19 19 18 16 14 14 13 10 7 6 5 5 4 3 6 7 8 9
52 56 54 53 49 39 38 29 27 40 35 33 30 25 22 18 24 23 22 23 21 19 23 27 31 32 28 26 23 21 21 20 19 18 17 14 13 13 12 9 7 6 7 5 4 5 7 5 6